Location: Unspecified
(49.8670°N, 0.0000°E)
Time: 18:39:43
(UTC+00:00)

Vanguard 1 - Pass Details

Date: 24 June 2019
Orbit: 655 x 3829 km, 34.2° (Epoch: 19 August)

Event Time Altitude Azimuth Distance (km) Brightness Sun altitude
Rises 01:41:40 0° 223° (SW) 7,839 - -13.5°
Reaches altitude 10° 01:48:13 10° 215° (SW) 6,554 - -13.0°
Exits shadow 01:50:47 14° 211° (SSW) 6,048 13.4 -12.9°
Maximum altitude 02:04:08 32° 163° (SSE) 3,874 12.7 -11.9°
Drops below altitude 10° 02:14:32 10° 107° (ESE) 4,282 13.5 -11.1°
Sets 02:17:43 0° 97° (E) 4,892 14.0 -10.8°
